Litchfield, IL

11:59 AM CDT on June 25, 2017 (GMT -0500)
Litchfield

Weather History for K3LF - September, 2013

Change the Weather History Date:

Wednesday, September 18, 2013

  Actual Average (KALN) Record (KALN)
Temperature  
Mean Temperature 73 °F -  
Max Temperature 84 °F 76 °F 89 °F (2007)
Min Temperature 62 °F 55 °F 48 °F (1996)
Cooling Degree Days 8    
Growing Degree Days 23 (Base 50)    
Moisture  
Dew Point 66 °F    
Average Humidity 83    
Maximum Humidity 99    
Minimum Humidity 58    
Precipitation  
Precipitation 0.12 in - - ()
Sea Level Pressure  
Sea Level Pressure 30.05 in    
Wind  
Wind Speed 7 mph (SSE)    
Max Wind Speed 15 mph    
Max Gust Speed 18 mph    
Visibility 8 miles    
Events Rain , Thunderstorm    
Averages and records for this station are not official NWS values.
T = Trace of Precipitation, MM = Missing Value Source: NWS Daily Summary

Daily Weather History Graph

Daily Weather History Graph

Search for Another Location

Airport or City:

Trip Planner

Search our weather history database for the weather conditions in past years. The results will help you decide how hot, cold, wet, or windy it might be!

Date:

Astronomy

Sep. 18, 2013 Rise Set
Actual Time 6:42 AM CDT 7:01 PM CDT
Civil Twilight 6:16 AM CDT 7:28 PM CDT
Nautical Twilight 5:44 AM CDT 7:59 PM CDT
Astronomical Twilight 5:12 AM CDT 8:31 PM CDT
Moon 6:25 PM CDT (9/18) 5:45 AM CDT (9/18)
Length of Visible Light 13h 12m
Length of Day
12h 18m
Waxing Gibbous, 99% of the Moon is Illuminated
Sep 18
Waxing Gibbous
Sep 19
Full
Sep 26
Last Quarter
Oct 4
New
Oct 11
First Quarter

Hourly Weather History & Observations

Time (CDT) Temp. Heat Index Dew Point Humidity Pressure Visibility Wind Dir Wind Speed Gust Speed Precip Events Conditions
12:15 AM 64.9 °F - 57.9 °F 78% 30.10 in 10.0 mi SE 5.8 mph - N/A   Clear
12:35 AM 64.9 °F - 58.1 °F 78% 30.10 in 10.0 mi SE 6.9 mph - N/A   Clear
12:55 AM 64.8 °F - 58.1 °F 79% 30.10 in 10.0 mi SE 6.9 mph - N/A   Clear
1:15 AM 64.6 °F - 58.1 °F 79% 30.09 in 10.0 mi SE 5.8 mph - N/A   Clear
1:35 AM 64.4 °F - 58.3 °F 80% 30.09 in 10.0 mi SE 6.9 mph - N/A   Scattered Clouds
1:55 AM 64.4 °F - 58.5 °F 81% 30.09 in 10.0 mi SE 5.8 mph - N/A   Scattered Clouds
2:15 AM 64.4 °F - 58.6 °F 82% 30.08 in 10.0 mi SE 4.6 mph - N/A   Mostly Cloudy
2:35 AM 63.9 °F - 59.0 °F 84% 30.10 in 10.0 mi Calm Calm - N/A Rain Rain
2:55 AM 63.0 °F - 60.1 °F 90% 30.10 in 10.0 mi South 4.6 mph - N/A   Light Drizzle
3:15 AM 62.8 °F - 60.3 °F 91% 30.10 in 4.0 mi Calm Calm - 0.02 in Rain Light Rain
3:35 AM 62.8 °F - 60.8 °F 93% 30.10 in 7.0 mi South 4.6 mph - 0.02 in   Drizzle
3:55 AM 63.0 °F - 60.8 °F 93% 30.09 in 7.0 mi SSE 4.6 mph - 0.03 in Rain Light Rain
4:15 AM 62.6 °F - 60.8 °F 94% 30.09 in 7.0 mi South 3.5 mph - N/A Rain Rain
4:35 AM 62.6 °F - 60.8 °F 94% 30.09 in 5.0 mi SSE 4.6 mph - 0.01 in Rain Rain
4:55 AM 62.4 °F - 61.0 °F 95% 30.08 in 5.0 mi SSE 5.8 mph - 0.02 in Rain Rain
5:15 AM 62.2 °F - 61.3 °F 97% 30.08 in 4.0 mi SE 5.8 mph - 0.04 in Rain Rain
5:35 AM 62.2 °F - 61.3 °F 97% 30.08 in 4.0 mi SE 4.6 mph - 0.05 in Rain Rain
5:55 AM 62.6 °F - 61.7 °F 97% 30.08 in 4.0 mi SE 4.6 mph - 0.05 in Rain Light Rain
6:15 AM 62.6 °F - 62.1 °F 98% 30.09 in 4.0 mi Calm Calm - 0.01 in Rain Rain
6:35 AM 62.6 °F - 62.1 °F 98% 30.09 in 3.0 mi SE 6.9 mph - 0.01 in Rain Rain
6:55 AM 62.8 °F - 62.2 °F 98% 30.08 in 2.5 mi SE 8.1 mph - 0.02 in   Mostly Cloudy
7:15 AM 63.0 °F - 62.6 °F 99% 30.08 in 2.0 mi SSE 8.1 mph - N/A   Overcast
7:35 AM 63.5 °F - 63.0 °F 98% 30.09 in 2.0 mi SSE 4.6 mph - N/A   Overcast
7:55 AM 63.9 °F - 63.5 °F 99% 30.10 in 1.8 mi SSE 5.8 mph - N/A   Overcast
8:15 AM 64.4 °F - 63.9 °F 98% 30.09 in 2.5 mi SSE 6.9 mph - N/A   Overcast
8:35 AM 65.3 °F - 64.6 °F 98% 30.10 in 2.5 mi SSE 8.1 mph - N/A   Mostly Cloudy
8:55 AM 66.6 °F - 65.8 °F 98% 30.10 in 3.0 mi SSE 8.1 mph - N/A   Mostly Cloudy
9:15 AM 67.6 °F - 66.2 °F 95% 30.10 in 5.0 mi SSE 8.1 mph - N/A   Mostly Cloudy
9:35 AM 68.2 °F - 66.2 °F 93% 30.10 in 5.0 mi SSE 8.1 mph - N/A   Mostly Cloudy
9:55 AM 69.3 °F - 66.7 °F 92% 30.10 in 7.0 mi SSE 8.1 mph - N/A   Mostly Cloudy
10:15 AM 68.9 °F - 66.9 °F 93% 30.10 in 7.0 mi East 8.1 mph - N/A Thunderstorm Thunderstorm
10:35 AM 70.0 °F - 67.6 °F 92% 30.09 in 7.0 mi SE 11.5 mph - N/A   Scattered Clouds
10:55 AM 72.5 °F - 68.0 °F 86% 30.09 in 10.0 mi SE 13.8 mph - N/A   Scattered Clouds
11:15 AM 72.5 °F - 68.0 °F 86% 30.08 in 10.0 mi SE 10.4 mph - N/A   Scattered Clouds
11:35 AM 73.6 °F - 68.4 °F 84% 30.08 in 10.0 mi SSE 9.2 mph - N/A   Clear
11:55 AM 73.9 °F - 68.4 °F 83% 30.07 in 10.0 mi SSE 11.5 mph - N/A   Clear
12:15 PM 77.2 °F - 69.4 °F 77% 30.06 in 10.0 mi SSE 10.4 mph - N/A   Clear
12:35 PM 79.5 °F - 68.0 °F 68% 30.06 in 10.0 mi SSE 12.7 mph 17.3 mph N/A   Clear
12:55 PM 79.9 °F - 67.8 °F 66% 30.05 in 10.0 mi SSE 15.0 mph - N/A   Clear
1:15 PM 80.6 °F 83.4 °F 68.2 °F 66% 30.04 in 10.0 mi SSE 13.8 mph - N/A   Clear
1:35 PM 81.3 °F 84.1 °F 68.2 °F 64% 30.04 in 10.0 mi South 9.2 mph 17.3 mph N/A   Clear
1:55 PM 82.4 °F 85.2 °F 67.8 °F 61% 30.03 in 10.0 mi South 11.5 mph - N/A   Clear
2:15 PM 83.7 °F 86.5 °F 67.3 °F 58% 30.02 in 10.0 mi South 10.4 mph 16.1 mph N/A   Clear
2:35 PM 83.1 °F 85.9 °F 67.3 °F 59% 30.01 in 10.0 mi SSE 11.5 mph 17.3 mph N/A   Clear
2:55 PM 83.3 °F 86.4 °F 68.0 °F 60% 30.01 in 10.0 mi South 8.1 mph - N/A   Clear
3:15 PM 84.2 °F 87.9 °F 68.7 °F 60% 30.00 in 10.0 mi South 11.5 mph 17.3 mph N/A   Clear
3:35 PM 83.5 °F 86.7 °F 68.2 °F 60% 30.00 in 10.0 mi South 10.4 mph 18.4 mph N/A   Clear
3:55 PM 83.1 °F 86.6 °F 68.7 °F 62% 29.99 in 10.0 mi South 11.5 mph - N/A   Clear
4:15 PM 82.4 °F 85.6 °F 68.7 °F 63% 29.98 in 10.0 mi South 6.9 mph - N/A   Clear
4:35 PM 83.3 °F 86.9 °F 69.3 °F 62% 29.99 in 10.0 mi South 9.2 mph - N/A   Clear
4:55 PM 82.9 °F 86.3 °F 68.9 °F 62% 29.98 in 10.0 mi South 9.2 mph - N/A   Clear
5:15 PM 83.1 °F 86.6 °F 68.9 °F 62% 29.98 in 10.0 mi South 9.2 mph - N/A   Clear
5:35 PM 82.4 °F 85.8 °F 68.9 °F 64% 29.98 in 10.0 mi South 6.9 mph - N/A   Clear
5:55 PM 81.5 °F 84.9 °F 69.8 °F 67% 29.98 in 10.0 mi SSE 6.9 mph - N/A   Clear
6:15 PM 80.6 °F 83.9 °F 69.8 °F 70% 29.98 in 10.0 mi SE 6.9 mph - N/A   Clear
6:35 PM 79.3 °F - 69.8 °F 72% 29.98 in 10.0 mi SE 5.8 mph - N/A   Clear
6:55 PM 77.5 °F - 70.0 °F 77% 29.98 in 10.0 mi SSE 5.8 mph - N/A   Clear
7:15 PM 76.1 °F - 69.8 °F 81% 29.97 in 10.0 mi SSE 4.6 mph - N/A   Clear
7:35 PM 74.7 °F - 69.6 °F 84% 29.98 in 10.0 mi SE 4.6 mph - N/A   Clear
7:55 PM 73.9 °F - 69.1 °F 85% 29.98 in 10.0 mi SSE 3.5 mph - N/A   Clear
8:15 PM 73.4 °F - 68.7 °F 85% 29.99 in 10.0 mi SSE 4.6 mph - N/A   Clear
8:35 PM 72.5 °F - 68.5 °F 87% 29.99 in 10.0 mi SSE 4.6 mph - N/A   Clear
8:55 PM 72.5 °F - 68.4 °F 87% 29.99 in 10.0 mi SSE 4.6 mph - N/A   Clear
9:15 PM 70.9 °F - 68.0 °F 91% 29.99 in 10.0 mi SSE 5.8 mph - N/A   Clear
9:35 PM 70.9 °F - 68.0 °F 91% 29.99 in 10.0 mi South 5.8 mph - N/A   Clear
9:55 PM 70.7 °F - 67.8 °F 91% 30.00 in 10.0 mi South 4.6 mph - N/A   Clear
10:15 PM 70.9 °F - 68.0 °F 91% 29.99 in 10.0 mi SSE 5.8 mph - N/A   Clear
10:35 PM 70.7 °F - 67.8 °F 91% 30.00 in 10.0 mi SSE 5.8 mph - N/A   Clear
10:55 PM 70.7 °F - 68.0 °F 91% 30.00 in 10.0 mi SSE 5.8 mph - N/A   Clear
11:15 PM 70.9 °F - 67.8 °F 90% 30.00 in 10.0 mi South 5.8 mph - N/A   Clear
11:35 PM 71.2 °F - 68.2 °F 90% 30.00 in 10.0 mi SSE 6.9 mph - N/A Rain Light Rain
11:55 PM 71.2 °F - 68.4 °F 91% 30.00 in 10.0 mi SSE 5.8 mph - N/A   Clear